EW1276 Weather Reports


time (UTC)temp
C
wind
direction
speed
KPH
gust
KPH
rain 1hr
cm
rain 24hr
cm
rain mn
cm
humidity
%
barometer
mb
20260906171604 36 0 3.2 8.0 0.00 0.00 0.00 45 1015.9
20260906170100 36 320 3.2 12.9 0.00 0.00 0.00 47 1016.1
20260906164549 36 157 1.6 8.0 0.00 0.00 0.00 48 1016.3
20260906163046 35 109 1.6 11.3 0.00 0.00 0.00 48 1016.4
20260906161550 35 164 3.2 9.7 0.00 0.00 0.00 50 1016.5
20260906160051 33 317 3.2 11.3 0.00 0.00 0.00 55 1016.6
20260906154557 33 316 3.2 6.4 0.00 0.00 0.00 54 1016.5
20260906153051 33 319 1.6 6.4 0.00 0.00 0.00 56 1016.3
20260906151553 32 0 1.6 6.4 0.00 0.00 0.00 54 1016.4
20260906150050 32 294 1.6 4.8 0.00 0.00 0.00 59 1016.2
20260906144609 31 261 0.0 4.8 0.00 0.00 0.00 59 1016.2
20260906143101 30 0 0.0 4.8 0.00 0.00 0.00 63 1016.3
20260906141550 29 0 1.6 4.8 0.00 0.00 0.00 67 1016.3
20260906140045 27 0 0.0 1.6 0.00 0.00 0.00 71 1016.3
20260906134553 25 0 0.0 3.2 0.00 0.00 0.00 81 1016.2
20260906133104 24 0 0.0 3.2 0.00 0.00 0.00 85 1016.3
20260906131549 23 311 0.0 1.6 0.00 0.00 0.00 89 1016.2
20260906130105 22 0 0.0 1.6 0.00 0.00 0.00 92 1015.8
20260906124555 21 0 0.0 0.0 0.00 0.00 0.00 94 1015.7
20260906123049 21 0 0.0 0.0 0.00 0.00 0.00 94 1015.5
20260906121545 21 0 0.0 3.2 0.00 0.00 0.00 94 1015.6
20260906120053 21 0 0.0 0.0 0.00 0.00 0.00 93 1015.4
20260906114556 21 0 0.0 1.6 0.00 0.00 0.00 93 1015.2
20260906113048 21 0 0.0 0.0 0.00 0.00 0.00 92 1015.2
20260906111545 21 0 0.0 3.2 0.00 0.00 0.00 92 1015.1
20260906110051 21 0 0.0 0.0 0.00 0.00 0.00 92 1014.9
20260906104558 21 0 0.0 0.0 0.00 0.00 0.00 91 1014.8
20260906103048 21 0 0.0 0.0 0.00 0.00 0.00 91 1014.9
20260906101547 21 0 0.0 0.0 0.00 0.00 0.00 91 1014.9
20260906100050 22 0 0.0 0.0 0.00 0.00 0.00 91 1014.7
20260906094605 22 0 0.0 1.6 0.00 0.00 0.00 91 1014.8
20260906093122 22 0 0.0 0.0 0.00 0.00 0.00 90 1014.7
20260906091546 22 0 0.0 0.0 0.00 0.00 0.00 90 1014.6
20260906090053 22 0 0.0 0.0 0.00 0.00 0.00 89 1014.4
20260906084549 22 0 0.0 1.6 0.00 0.00 0.00 89 1014.3
20260906083049 22 0 0.0 1.6 0.00 0.00 0.00 89 1014.5
20260906081545 22 0 0.0 0.0 0.00 0.00 0.00 88 1014.6
20260906080053 23 0 0.0 0.0 0.00 0.00 0.00 88 1014.5
20260906074553 23 0 0.0 0.0 0.00 0.00 0.00 87 1014.4
20260906073050 23 0 0.0 0.0 0.00 0.00 0.00 87 1014.6
20260906071546 23 0 0.0 0.0 0.00 0.00 0.00 86 1014.7
20260906070050 23 0 0.0 1.6 0.00 0.00 0.00 85 1014.6
20260906064548 23 0 0.0 3.2 0.00 0.00 0.00 85 1014.7
20260906063051 24 0 0.0 0.0 0.00 0.00 0.00 84 1014.9
20260906061549 24 0 0.0 1.6 0.00 0.00 0.00 83 1014.8
20260906060047 24 0 0.0 1.6 0.00 0.00 0.00 83 1014.8
20260906054602 24 0 0.0 3.2 0.00 0.00 0.00 82 1014.7
20260906053050 25 319 3.2 4.8 0.00 0.00 0.00 79 1014.7
20260906051558 25 0 0.0 0.0 0.00 0.00 0.00 77 1014.5
20260906050047 25 0 0.0 0.0 0.00 0.00 0.00 75 1014.6
20260906044557 26 0 0.0 0.0 0.00 0.00 0.00 74 1014.4
20260906043048 26 0 0.0 0.0 0.00 0.00 0.00 73 1014.5
20260906041547 26 0 0.0 1.6 0.00 0.00 0.00 72 1014.6
20260906034550 27 0 0.0 0.0 0.00 0.00 0.00 69 1014.5
20260906033050 27 0 0.0 1.6 0.00 0.00 0.00 68 1014.5
20260906031544 28 0 0.0 3.2 0.00 0.00 0.00 66 1014.4
20260906030049 28 0 0.0 1.6 0.00 0.00 0.00 63 1014.2
20260906024551 30 304 0.0 3.2 0.00 0.00 0.00 61 1014.1
20260906023044 30 0 0.0 4.8 0.00 0.00 0.00 58 1013.7
20260906021551 31 0 0.0 1.6 0.00 0.00 0.00 57 1013.7
20260906020049 31 0 0.0 4.8 0.00 0.00 0.00 55 1013.4
20260906014620 31 0 0.0 3.2 0.00 0.00 0.00 54 1013.3
20260906013058 31 189 3.2 8.0 0.00 0.00 0.00 54 1013.2
20260906011548 31 0 1.6 3.2 0.00 0.00 0.00 55 1013.1
20260906010053 33 0 0.0 1.6 0.00 0.00 0.00 51 1012.9
20260906004606 33 0 0.0 4.8 0.00 0.00 0.00 47 1013.1
20260906003059 34 167 0.0 8.0 0.00 0.00 0.00 45 1013.1
20260906001549 35 0 0.0 1.6 0.00 0.00 0.00 43 1012.8
20260906000050 35 0 0.0 3.2 0.00 0.00 0.00 41 1012.8
20260905234544 36 0 0.0 4.8 0.00 0.00 0.00 38 1012.7
20260905233050 36 269 0.0 6.4 0.00 0.00 0.00 37 1012.7
20260905231548 37 331 3.2 9.7 0.00 0.00 0.00 36 1012.7
20260905230053 37 264 0.0 9.7 0.00 0.00 0.00 36 1012.7
20260905224548 37 309 1.6 6.4 0.00 0.00 0.00 37 1012.5
20260905223048 37 302 1.6 9.7 0.00 0.00 0.00 37 1012.5
20260905221611 38 0 0.0 6.4 0.00 0.00 0.00 38 1012.6
20260905220049 37 269 1.6 8.0 0.00 0.00 0.00 38 1012.8
20260905214547 37 303 4.8 12.9 0.00 0.00 0.00 38 1012.8
20260905213103 37 178 0.0 8.0 0.00 0.00 0.00 38 1012.9
20260905211550 37 360 3.2 9.7 0.00 0.00 0.00 38 1013.1
20260905210052 37 282 4.8 12.9 0.00 0.00 0.00 38 1013.4
20260905204547 37 336 3.2 8.0 0.00 0.00 0.00 39 1013.6
20260905203055 37 296 3.2 12.9 0.00 0.00 0.00 39 1013.8
20260905201609 37 182 3.2 17.7 0.00 0.00 0.00 39 1014.0
20260905200051 37 176 1.6 8.0 0.00 0.00 0.00 40 1014.2
20260905194549 37 288 4.8 12.9 0.00 0.00 0.00 42 1014.4
20260905193107 36 273 4.8 12.9 0.00 0.00 0.00 44 1014.6
20260905191549 36 161 0.0 8.0 0.00 0.00 0.00 44 1014.8
20260905190048 37 157 4.8 11.3 0.00 0.00 0.00 43 1015.1
20260905184557 36 157 6.4 16.1 0.00 0.00 0.00 43 1015.5
20260905183050 36 24 3.2 14.5 0.00 0.00 0.00 44 1015.5
20260905181605 36 165 1.6 9.7 0.00 0.00 0.00 43 1015.7
20260905180052 36 99 3.2 12.9 0.00 0.00 0.00 44 1016.0
20260905174602 36 189 3.2 17.7 0.00 0.00 0.00 47 1016.1
20260905173051 36 171 3.2 11.3 0.00 0.00 0.00 48 1016.3